Terug naar catalogus

SL-18 R/B

ActiefLEO
NORAD 22562·ROCKET BODY·🇷🇺 Russia

Gelanceerd Mar 25, 1993 vanaf Plesetsk Cosmodrome

Loading…

Volgende Passages (komende 24 uur)

TLE

VersSource: Space-Track

Epoch: Sep 14, 2026, 07:09 UTC

1 22562U 93014B   26257.29830346  .00000102  00000-0  38619-4 0  9995
2 22562  75.7631  22.2550 0161995  30.9729 330.0860 14.30645405744574

Volg SL-18 R/B in realtime met AllMySat

Download on the App Store